Hourly Weather Roundup
Issued by NWS Central Illinois

Home | Current Version | Previous Version | Text Only | Print | Product List | Glossary On
Versions: 1 2 3 4 5 6 7 8 9 10 11 12 13 14 15 16 17 18 19 20 21 22 23 24 25 26 27 28 29 30 31 32 33 34 35 36 37 38 39 40 41 42 43 44 45 46 47 48 49 50
000
NZUS43 KILX 020710
HWRILX

AREA WEATHER ROUNDUP
NATIONAL WEATHER SERVICE, LINCOLN IL
200 AM CDT THU OCT 02 2014


CITY           SKY/WX    TMP DP  RH WIND       PRES   REMARKS
BLOOMINGTON    NOT AVBL
CHAMPAIGN      LGT RAIN  64  63  94 S6        29.91S
DECATUR        LGT RAIN  67  65  93 S15       29.89F
FLORA          PTCLDY    67  59  76 SE6       29.89F
GALESBURG      CLOUDY    65  64  95 S3        29.82R
JACKSONVILLE   CLOUDY    68  66  93 S5        29.84R
LACON          CLOUDY    67  63  85 S5        29.83R
LAWRENCEVILLE  PTCLDY    64  57  78 S7        29.92S
LITCHFIELD     TSTM      65  63  93 NW15      29.90R
$$


CITY           SKY/WX    TMP DP  RH WIND       PRES   REMARKS
LINCOLN        LGT RAIN  67  65  93 S10       29.81F
MACOMB         CLOUDY    64  64  99 SW6       29.86R
MATTOON        CLOUDY    67  59  75 NW6       29.90S
MT CARMEL AP   MOCLDY    68  59  73 CALM      29.91R
OLNEY-NOBLE AP MOCLDY    68  59  73 CALM      29.90F
PARIS          CLOUDY    67  60  78 SE5       29.92S
PEORIA         CLOUDY    69  63  81 S12       29.83F
PONTIAC        CLOUDY    68  64  88 S5        29.86F
RANTOUL        RAIN      67  62  84 SE6       29.90F
ROBINSON       MOCLDY    62  59  90 CALM      29.92S
SPRINGFIELD    LGT RAIN  68  65  90 SE12      29.82F
TAYLORVILLE    RAIN      63  63 100 S6        29.90R
$$

...REGIONAL REPORTS...


CITY           SKY/WX    TMP DP  RH WIND       PRES   REMARKS
CHICAGO O`HARE CLOUDY    64  56  75 SE8       29.88F
KANKAKEE       CLOUDY    64  58  83 SE5       29.90S
MOLINE         CLOUDY    64  61  90 CALM      29.82R FOG
MOUNT VERNON   NOT AVBL
PITTSFIELD     RAIN      67  64  91 E5        29.82R
QUINCY         TSTM      66  65  96 W6        29.87R FOG
ROCKFORD       CLOUDY    64  55  72 SE7       29.86F
$$


CITY           SKY/WX    TMP DP  RH WIND       PRES   REMARKS
BURLINGTON     RAIN      66  65  96 SE10      29.79F FOG
CEDAR RAPIDS   NOT AVBL
DES MOINES     FOG       63  62  97 E3        29.80R VSB 1/8
KIRKSVILLE     CLOUDY    65  65 100 S9        29.78F FOG
OTTUMWA        FOG       63  62  97 E5        29.81R VSB 1/4
ST LOUIS       CLOUDY    70  66  88 E7        29.86S
$$


CITY           SKY/WX    TMP DP  RH WIND       PRES   REMARKS
TERRE HAUTE    CLOUDY    66  58  75 SE7       29.93R
EVANSVILLE     CLEAR     66  57  72 CALM      29.93F
INDIANAPOLIS   PTCLDY    61  53  75 SE9       29.96S
LAFAYETTE      CLOUDY    64  56  75 SE12      29.92F
MADISON        CLOUDY    62  54  74 S6        29.85F
MILWAUKEE      CLOUDY    63  54  72 S10       29.88F
$$




USA.gov is the U.S. government's official web portal to all federal, state and local government web resources and services.